EW2255 Weather Reports


Display with metric or nautical units.
time (UTC)temp
F
wind
direction
speed
MPH
gust
MPH
rain 1hr
in
rain 24hr
in
rain mn
in
humidity
%
barometer
mb
20170924140003 76 223 2.0 9.0 0.00 0.00 0.00 77 1013.6
20170924135803 76 178 2.0 9.0 0.00 0.00 0.00 77 1014.5
20170924135251 75 231 3.0 9.0 0.00 0.00 0.00 79 1014.5
20170924134754 75 210 2.0 8.0 0.00 0.00 0.00 81 1014.5
20170924134409 73 281 2.0 8.0 0.00 0.00 0.00 82 1013.7
20170924134305 74 274 3.0 8.0 0.00 0.00 0.00 83 1014.6
20170924133807 72 210 3.0 7.0 0.00 0.00 0.00 86 1014.5
20170924133310 71 271 3.0 7.0 0.00 0.00 0.00 89 1014.6
20170924132808 70 213 0.0 0.0 0.00 0.00 0.00 91 1013.9
20170924132753 70 213 0.0 0.0 0.00 0.00 0.00 91 1014.6
20170924132309 70 213 0.0 0.0 0.00 0.00 0.00 91 1014.6
20170924131810 69 213 0.0 0.0 0.00 0.00 0.00 94 1014.6
20170924131252 69 213 0.0 0.0 0.00 0.00 0.00 95 1014.6
20170924131105 68 213 0.0 0.0 0.00 0.00 0.00 96 1013.9
20170924130800 68 213 0.0 0.0 0.00 0.00 0.00 97 1014.6
20170924130257 67 213 0.0 0.0 0.00 0.00 0.00 97 1014.6
20170924125800 67 213 0.0 0.0 0.00 0.00 0.00 98 1014.7
20170924125408 66 213 0.0 0.0 0.00 0.00 0.00 98 1014.0
20170924125257 66 213 0.0 0.0 0.00 0.00 0.00 98 1014.7
20170924124759 66 213 0.0 0.0 0.00 0.00 0.00 97 1014.8
20170924124303 65 213 0.0 0.0 0.00 0.00 0.00 98 1014.7
20170924123813 65 213 0.0 0.0 0.00 0.00 0.00 97 1014.7
20170924123757 65 213 0.0 0.0 0.00 0.00 0.00 97 1014.0
20170924123258 65 213 0.0 0.0 0.00 0.00 0.00 97 1014.8
20170924122803 65 213 0.0 0.0 0.00 0.00 0.00 98 1014.8
20170924122312 65 213 0.0 0.0 0.00 0.00 0.00 98 1014.7
20170924122159 64 213 0.0 0.0 0.00 0.00 0.00 98 1014.0
20170924121757 65 213 0.0 0.0 0.00 0.00 0.00 98 1014.8
20170924121302 64 213 0.0 2.0 0.00 0.00 0.00 98 1014.9
20170924120805 64 213 0.0 2.0 0.00 0.00 0.00 98 1014.8
20170924120612 63 213 0.0 3.0 0.00 0.00 0.00 98 1014.1
20170924120315 64 213 0.0 3.0 0.00 0.00 0.00 98 1014.9
20170924115759 63 173 0.0 0.0 0.00 0.00 0.00 97 1014.8
20170924115304 63 173 0.0 0.0 0.00 0.00 0.00 97 1014.8
20170924115018 62 173 0.0 0.0 0.00 0.00 0.00 97 1014.1
20170924114815 63 173 0.0 0.0 0.00 0.00 0.00 97 1014.8
20170924114301 63 173 0.0 0.0 0.00 0.00 0.00 97 1014.8
20170924113806 63 173 0.0 0.0 0.00 0.00 0.00 97 1014.8
20170924113455 62 173 0.0 0.0 0.00 0.00 0.00 97 1014.1
20170924113252 63 173 0.0 0.0 0.00 0.00 0.00 97 1014.8
20170924112804 63 173 0.0 0.0 0.00 0.00 0.00 97 1014.8
20170924112310 63 173 0.0 0.0 0.00 0.00 0.00 97 1014.8
20170924111836 62 173 0.0 0.0 0.00 0.00 0.00 97 1014.0
20170924111754 63 173 0.0 0.0 0.00 0.00 0.00 97 1014.7
20170924111259 63 173 0.0 0.0 0.00 0.00 0.00 97 1014.7
20170924110810 63 173 0.0 1.0 0.00 0.00 0.00 97 1014.7
20170924110238 63 173 0.0 2.0 0.00 0.00 0.00 97 1013.9
20170924105807 63 173 0.0 2.0 0.00 0.00 0.00 97 1014.6
20170924105316 63 173 0.0 0.0 0.00 0.00 0.00 97 1014.7
20170924104802 64 173 0.0 0.0 0.00 0.00 0.00 97 1014.7
20170924104648 63 173 0.0 0.0 0.00 0.00 0.00 97 1014.0
20170924104307 64 173 0.0 0.0 0.00 0.00 0.00 97 1014.7
20170924103752 64 173 0.0 0.0 0.00 0.00 0.00 97 1014.7
20170924103305 64 173 0.0 0.0 0.00 0.00 0.00 97 1014.7
20170924103102 64 173 0.0 0.0 0.00 0.00 0.00 97 1013.9
20170924102752 64 173 0.0 0.0 0.00 0.00 0.00 97 1014.6
20170924102258 64 173 0.0 0.0 0.00 0.00 0.00 97 1014.6
20170924101802 64 173 0.0 0.0 0.00 0.00 0.00 97 1014.5
20170924101503 64 173 0.0 0.0 0.00 0.00 0.00 97 1013.7
20170924101255 64 173 0.0 0.0 0.00 0.00 0.00 97 1014.5
20170924100800 64 173 0.0 0.0 0.00 0.00 0.00 97 1014.5
20170924100304 64 173 0.0 0.0 0.00 0.00 0.00 97 1014.5
20170924095909 64 173 0.0 0.0 0.00 0.00 0.00 97 1013.8
20170924095811 64 173 0.0 0.0 0.00 0.00 0.00 97 1014.5
20170924095257 64 173 0.0 0.0 0.00 0.00 0.00 97 1014.6
20170924094802 64 173 0.0 0.0 0.00 0.00 0.00 97 1014.6
20170924094315 64 173 0.0 0.0 0.00 0.00 0.00 97 1014.6
20170924094302 63 173 0.0 0.0 0.00 0.00 0.00 97 1013.8
20170924093801 64 173 0.0 0.0 0.00 0.00 0.00 97 1014.6
20170924093308 64 173 0.0 0.0 0.00 0.00 0.00 97 1014.7
20170924092838 64 173 0.0 0.0 0.00 0.00 0.00 97 1014.6
20170924092629 64 173 0.0 0.0 0.00 0.00 0.00 97 1013.8
20170924092258 64 173 0.0 0.0 0.00 0.00 0.00 97 1014.7
20170924091809 64 173 0.0 0.0 0.00 0.00 0.00 97 1014.6
20170924091256 64 173 0.0 0.0 0.00 0.00 0.00 97 1014.6
20170924091038 64 173 0.0 0.0 0.00 0.00 0.00 97 1013.8
20170924090802 64 173 0.0 0.0 0.00 0.00 0.00 97 1014.6
20170924090308 64 173 0.0 0.0 0.00 0.00 0.00 97 1014.5
20170924085458 64 173 0.0 0.0 0.00 0.00 0.00 97 1013.7
20170924085311 64 173 0.0 0.0 0.00 0.00 0.00 97 1014.5
20170924084753 64 173 0.0 0.0 0.00 0.00 0.00 97 1014.5
20170924084255 64 173 0.0 0.0 0.00 0.00 0.00 97 1014.5
20170924083905 64 173 0.0 0.0 0.00 0.00 0.00 97 1013.6
20170924083807 64 173 0.0 0.0 0.00 0.00 0.00 97 1014.5
20170924083251 64 173 0.0 0.0 0.00 0.00 0.00 97 1014.6
20170924082310 64 173 0.0 0.0 0.00 0.00 0.00 97 1014.6
20170924082301 64 173 0.0 0.0 0.00 0.00 0.00 97 1013.8
20170924081752 64 173 0.0 0.0 0.00 0.00 0.00 97 1014.6
20170924081258 64 173 0.0 0.0 0.00 0.00 0.00 97 1014.6
20170924080801 64 173 0.0 0.0 0.00 0.00 0.00 97 1014.6
20170924080702 64 173 0.0 0.0 0.00 0.00 0.00 97 1013.7
20170924080309 64 173 0.0 0.0 0.00 0.00 0.00 97 1014.6
20170924075754 64 173 0.0 0.0 0.00 0.00 0.00 97 1014.6
20170924075256 64 173 0.0 3.0 0.00 0.00 0.00 97 1014.6
20170924075115 64 173 0.0 3.0 0.00 0.00 0.00 97 1013.8
20170924074807 64 173 1.0 3.0 0.00 0.00 0.00 97 1014.6
20170924074359 64 215 0.0 0.0 0.00 0.00 0.00 97 1014.6
20170924073503 64 215 0.0 0.0 0.00 0.00 0.00 96 1013.8
20170924073304 64 215 0.0 0.0 0.00 0.00 0.00 96 1014.7
20170924072751 64 215 0.0 0.0 0.00 0.00 0.00 96 1014.7
20170924072305 64 215 0.0 0.0 0.00 0.00 0.00 96 1014.8
20170924071849 64 215 0.0 0.0 0.00 0.00 0.00 97 1013.9
20170924071807 64 215 0.0 0.0 0.00 0.00 0.00 97 1014.7
20170924071251 64 215 0.0 0.0 0.00 0.00 0.00 96 1014.7
20170924070803 64 215 0.0 0.0 0.00 0.00 0.00 96 1014.7
20170924070251 64 215 0.0 0.0 0.00 0.00 0.00 96 1014.8
20170924070245 64 215 0.0 0.0 0.00 0.00 0.00 96 1013.9
20170924065754 64 215 0.0 0.0 0.00 0.00 0.00 96 1014.8
20170924065257 64 215 0.0 0.0 0.00 0.00 0.00 96 1014.8
20170924064808 65 215 0.0 0.0 0.00 0.00 0.00 96 1014.7
20170924064549 64 215 0.0 0.0 0.00 0.00 0.00 96 1013.9
20170924064300 65 215 0.0 0.0 0.00 0.00 0.00 96 1014.7
20170924063805 65 215 0.0 0.0 0.00 0.00 0.00 96 1014.7
20170924063312 65 215 0.0 0.0 0.00 0.00 0.00 97 1014.6
20170924063000 64 215 0.0 0.0 0.00 0.00 0.00 97 1013.8
20170924062756 65 215 0.0 0.0 0.00 0.00 0.00 97 1014.7
20170924062300 64 215 0.0 0.0 0.00 0.00 0.00 97 1014.6
20170924061811 64 215 0.0 0.0 0.00 0.00 0.00 96 1014.6
20170924061357 64 215 0.0 0.0 0.00 0.00 0.00 96 1013.7
20170924061300 64 215 0.0 0.0 0.00 0.00 0.00 96 1014.6
20170924060804 64 215 0.0 0.0 0.00 0.00 0.00 96 1014.5
20170924060310 65 215 0.0 0.0 0.00 0.00 0.00 96 1014.5
20170924055801 65 215 0.0 0.0 0.00 0.00 0.00 96 1014.5
20170924055755 64 215 0.0 0.0 0.00 0.00 0.00 96 1013.6
20170924055303 64 215 0.0 0.0 0.00 0.00 0.00 96 1014.5
20170924054809 64 215 0.0 0.0 0.00 0.00 0.00 96 1014.5
20170924054255 64 215 0.0 0.0 0.00 0.00 0.00 96 1014.4
20170924054215 64 215 0.0 0.0 0.00 0.00 0.00 96 1013.5
20170924053806 64 215 0.0 0.0 0.00 0.00 0.00 96 1014.4
20170924053251 64 215 0.0 0.0 0.00 0.00 0.00 96 1014.4
20170924052814 64 215 0.0 0.0 0.00 0.00 0.00 96 1014.3
20170924052600 64 215 0.0 0.0 0.00 0.00 0.00 96 1013.4
20170924052259 64 215 0.0 0.0 0.00 0.00 0.00 96 1014.3
20170924051802 65 215 0.0 0.0 0.00 0.00 0.00 96 1014.3
20170924051305 65 215 0.0 0.0 0.00 0.00 0.00 96 1014.3
20170924051005 64 215 0.0 0.0 0.00 0.00 0.00 96 1013.4
20170924050815 65 215 0.0 0.0 0.00 0.00 0.00 96 1014.4
20170924050302 65 215 0.0 0.0 0.00 0.00 0.00 95 1014.4
20170924045807 65 215 0.0 0.0 0.00 0.00 0.00 96 1014.4
20170924045420 65 215 0.0 0.0 0.00 0.00 0.00 96 1013.5
20170924045259 65 215 0.0 0.0 0.00 0.00 0.00 96 1014.4
20170924044810 65 215 0.0 0.0 0.00 0.00 0.00 96 1014.4
20170924044254 65 215 0.0 0.0 0.00 0.00 0.00 95 1014.4
20170924043800 65 215 0.0 0.0 0.00 0.00 0.00 95 1014.4
20170924043716 65 215 0.0 0.0 0.00 0.00 0.00 95 1013.4
20170924043313 65 215 0.0 2.0 0.00 0.00 0.00 95 1014.3
20170924042757 66 215 0.0 2.0 0.00 0.00 0.00 95 1014.3
20170924042300 66 215 0.0 2.0 0.00 0.00 0.00 95 1014.3
20170924042132 65 215 0.0 2.0 0.00 0.00 0.00 95 1013.4
20170924041804 66 215 0.0 3.0 0.00 0.00 0.00 95 1014.3
20170924041250 66 215 1.0 3.0 0.00 0.00 0.00 95 1014.3
20170924040800 66 215 0.0 2.0 0.00 0.00 0.00 95 1014.3
20170924040538 65 214 0.0 0.0 0.00 0.00 0.00 95 1013.4
20170924040306 66 214 0.0 0.0 0.00 0.00 0.00 95 1014.3
20170924035750 66 214 0.0 0.0 0.00 0.00 0.00 95 1014.3
20170924035304 66 214 0.0 0.0 0.00 0.00 0.00 95 1014.4
20170924034939 66 214 0.0 0.0 0.00 0.00 0.00 95 1013.4
20170924034809 66 214 0.0 0.0 0.00 0.00 0.00 95 1014.3
20170924034255 66 214 0.0 0.0 0.00 0.00 0.00 95 1014.3
20170924033807 67 214 0.0 0.0 0.00 0.00 0.00 95 1014.2
20170924033402 66 214 0.0 0.0 0.00 0.00 0.00 95 1013.2
20170924033253 67 214 0.0 0.0 0.00 0.00 0.00 95 1014.2
20170924032757 67 214 0.0 0.0 0.00 0.00 0.00 95 1014.2
20170924032300 66 214 0.0 0.0 0.00 0.00 0.00 95 1014.1
20170924032106 66 214 0.0 0.0 0.00 0.00 0.00 95 1013.2
20170924031258 66 214 0.0 0.0 0.00 0.00 0.00 94 1014.1
20170924030805 66 214 0.0 0.0 0.00 0.00 0.00 94 1014.0
20170924030256 66 214 0.0 0.0 0.00 0.00 0.00 94 1014.0
20170924030201 66 214 0.0 0.0 0.00 0.00 0.00 94 1013.1
20170924025805 66 214 0.0 1.0 0.00 0.00 0.00 94 1014.1
20170924025251 66 214 0.0 1.0 0.00 0.00 0.00 94 1014.1
20170924024757 66 214 0.0 1.0 0.00 0.00 0.00 94 1014.0
20170924024612 66 214 0.0 2.0 0.00 0.00 0.00 94 1013.0
20170924024345 66 214 0.0 2.0 0.00 0.00 0.00 94 1014.0
20170924023808 66 214 0.0 2.0 0.00 0.00 0.00 94 1014.1
20170924023301 66 214 0.0 2.0 0.00 0.00 0.00 94 1014.0
20170924022931 66 214 0.0 3.0 0.00 0.00 0.00 93 1013.1
20170924022804 66 214 0.0 3.0 0.00 0.00 0.00 93 1014.1
20170924022316 67 214 1.0 4.0 0.00 0.00 0.00 93 1014.0
20170924021800 67 203 1.0 3.0 0.00 0.00 0.00 92 1014.1
20170924021337 67 203 1.0 3.0 0.00 0.00 0.00 92 1013.1
20170924021304 67 201 1.0 3.0 0.00 0.00 0.00 92 1014.0
20170924020751 68 86 1.0 2.0 0.00 0.00 0.00 91 1014.0
20170924020304 68 85 0.0 2.0 0.00 0.00 0.00 91 1014.1
20170924015808 68 88 1.0 2.0 0.00 0.00 0.00 92 1014.1
20170924015746 68 88 0.0 2.0 0.00 0.00 0.00 92 1013.1
20170924015252 68 94 0.0 0.0 0.00 0.00 0.00 91 1014.0
20170924014757 68 94 0.0 0.0 0.00 0.00 0.00 91 1014.0
20170924014310 68 94 0.0 0.0 0.00 0.00 0.00 90 1013.9
20170924014155 68 94 0.0 0.0 0.00 0.00 0.00 90 1013.0
20170924013755 69 94 0.0 0.0 0.00 0.00 0.00 89 1013.8
20170924012814 70 94 1.0 5.0 0.00 0.00 0.00 88 1013.8
20170924012603 69 93 0.0 5.0 0.00 0.00 0.00 88 1012.8
20170924012257 70 93 2.0 5.0 0.00 0.00 0.00 87 1013.7
20170924011808 71 93 3.0 5.0 0.00 0.00 0.00 86 1013.7
20170924011254 72 91 2.0 6.0 0.00 0.00 0.00 85 1013.7
20170924010909 72 91 2.0 7.0 0.00 0.00 0.00 84 1012.7
20170924010805 73 91 2.0 7.0 0.00 0.00 0.00 84 1013.7
20170924010251 74 98 2.0 6.0 0.00 0.00 0.00 85 1013.6
20170924005754 75 187 1.0 2.0 0.00 0.00 0.00 86 1013.5
20170924005323 75 207 0.0 2.0 0.00 0.00 0.00 88 1012.5
20170924005258 75 207 0.0 1.0 0.00 0.00 0.00 88 1013.4
20170924004811 76 207 0.0 1.0 0.00 0.00 0.00 87 1013.4
20170924004255 76 207 0.0 0.0 0.00 0.00 0.00 87 1013.3
20170924003803 76 207 0.0 0.0 0.00 0.00 0.00 86 1013.2
20170924003739 76 207 0.0 0.0 0.00 0.00 0.00 86 1012.2
20170924003315 76 207 0.0 0.0 0.00 0.00 0.00 86 1013.2
20170924002800 77 207 0.0 0.0 0.00 0.00 0.00 85 1013.2
20170924002306 77 207 0.0 0.0 0.00 0.00 0.00 84 1013.2
20170924002125 77 207 0.0 2.0 0.00 0.00 0.00 84 1012.2
20170924001751 78 207 0.0 2.0 0.00 0.00 0.00 83 1013.2
20170924001304 79 207 1.0 2.0 0.00 0.00 0.00 81 1013.0
20170924000808 79 207 1.0 4.0 0.00 0.00 0.00 80 1013.0
20170924000557 79 207 0.0 4.0 0.00 0.00 0.00 79 1012.1
20170924000255 80 207 0.0 4.0 0.00 0.00 0.00 78 1013.0
20170923235801 80 198 0.0 3.0 0.00 0.00 0.00 78 1012.9
20170923235254 80 204 0.0 1.0 0.00 0.00 0.00 78 1012.9
20170923234849 80 204 0.0 2.0 0.00 0.00 0.00 78 1012.1
20170923234804 81 204 0.0 2.0 0.00 0.00 0.00 78 1013.0
20170923234256 81 204 0.0 3.0 0.00 0.00 0.00 77 1012.9
20170923233759 81 204 1.0 6.0 0.00 0.00 0.00 76 1012.9
20170923233312 81 213 1.0 4.0 0.00 0.00 0.00 77 1012.9
20170923233307 80 213 0.0 4.0 0.00 0.00 0.00 77 1012.0
20170923232757 81 211 1.0 3.0 0.00 0.00 0.00 78 1012.9
20170923232303 81 210 1.0 3.0 0.00 0.00 0.00 78 1012.9
20170923231750 81 223 1.0 3.0 0.00 0.00 0.00 79 1013.0
20170923231720 81 209 0.0 3.0 0.00 0.00 0.00 80 1012.1
20170923231308 81 209 0.0 3.0 0.00 0.00 0.00 79 1013.0
20170923230809 81 209 0.0 2.0 0.00 0.00 0.00 79 1012.9
20170923230255 80 208 0.0 4.0 0.00 0.00 0.00 79 1012.8
20170923230014 79 208 0.0 4.0 0.00 0.00 0.00 79 1011.9
20170923225807 79 208 1.0 4.0 0.00 0.00 0.00 78 1012.8
20170923225310 79 217 0.0 5.0 0.00 0.00 0.00 78 1012.8
20170923224757 78 231 2.0 9.0 0.00 0.00 0.00 76 1012.7
20170923224424 78 223 4.0 9.0 0.00 0.00 0.00 76 1011.8
20170923224303 78 242 3.0 6.0 0.00 0.00 0.00 75 1012.7
20170923223815 80 271 2.0 7.0 0.00 0.00 0.00 70 1012.6
20170923223301 81 251 3.0 7.0 0.00 0.00 0.00 71 1012.6
20170923222855 81 248 2.0 8.0 0.00 0.00 0.00 71 1011.7
20170923222804 81 251 3.0 8.0 0.00 0.00 0.00 71 1012.5
20170923222251 81 265 2.0 8.0 0.00 0.00 0.00 75 1012.4
20170923221803 80 246 3.0 8.0 0.00 0.00 0.00 75 1012.4
20170923221307 79 239 4.0 8.0 0.00 0.00 0.00 76 1012.3
20170923221226 79 238 4.0 8.0 0.00 0.00 0.00 76 1011.4
20170923220753 79 262 3.0 5.0 0.00 0.00 0.00 77 1012.3
20170923220305 78 261 1.0 5.0 0.00 0.00 0.00 80 1012.2
20170923215809 77 260 1.0 5.0 0.00 0.00 0.00 80 1012.2
20170923215639 76 219 0.0 5.0 0.00 0.00 0.00 80 1011.3
20170923215255 77 226 3.0 8.0 0.00 0.00 0.00 77 1012.1
20170923214802 78 266 5.0 8.0 0.00 0.00 0.00 75 1012.1
20170923214315 78 228 5.0 8.0 0.00 0.00 0.00 76 1012.0
20170923214110 77 239 4.0 8.0 0.00 0.00 0.00 77 1011.1
20170923213848 77 237 4.0 8.0 0.00 0.00 0.00 78 1012.0
20170923213310 77 264 5.0 9.0 0.00 0.00 0.00 77 1012.0
20170923212754 78 263 6.0 9.0 0.00 0.00 0.00 74 1011.9
20170923212426 79 242 3.0 8.0 0.00 0.00 0.00 73 1010.9
20170923212300 79 238 4.0 8.0 0.00 0.00 0.00 73 1011.8
20170923211753 80 261 4.0 9.0 0.00 0.00 0.00 72 1011.7
20170923211256 81 254 4.0 9.0 0.00 0.00 0.00 73 1011.7
20170923210824 79 222 3.0 7.0 0.00 0.00 0.00 74 1010.8
20170923210759 80 223 4.0 7.0 0.00 0.00 0.00 75 1011.7
20170923210311 79 234 3.0 7.0 0.00 0.00 0.00 75 1011.7
20170923205755 78 232 3.0 8.0 0.00 0.00 0.00 75 1011.8
20170923205301 78 240 4.0 9.0 0.00 0.00 0.00 75 1011.7
20170923205224 78 244 4.0 9.0 0.00 0.00 0.00 76 1010.9
20170923204814 78 269 4.0 8.0 0.00 0.00 0.00 77 1011.7
20170923204300 78 236 5.0 8.0 0.00 0.00 0.00 75 1011.7
20170923203804 78 202 3.0 7.0 0.00 0.00 0.00 76 1011.8
20170923203629 78 242 3.0 7.0 0.00 0.00 0.00 76 1010.8
20170923203311 78 262 3.0 6.0 0.00 0.00 0.00 76 1011.8
20170923202802 78 257 327.0 327.0 0.00 0.00 0.00 77 1011.6
20170923202304 78 239 2.0 6.0 0.00 0.00 0.00 77 1011.9
20170923202030 77 263 2.0 7.0 0.00 0.00 0.00 76 1011.0
20170923201809 78 263 3.0 7.0 0.00 0.00 0.00 77 1011.9
20170923201305 78 231 6.0 7.0 0.00 0.00 0.00 77 1011.9
20170923200357 76 258 3.0 7.0 0.00 0.00 0.00 79 1011.2
20170923200303 76 263 4.0 7.0 0.00 0.00 0.00 79 1012.1
20170923195805 77 254 3.0 8.0 0.00 0.01 0.00 78 1012.1
20170923195316 77 257 5.0 9.0 0.00 0.01 0.00 77 1012.0
20170923194801 78 251 7.0 9.0 0.00 0.01 0.00 76 1012.0
20170923194741 78 250 6.0 9.0 0.00 0.01 0.00 77 1011.1
20170923194304 77 240 4.0 9.0 0.00 0.01 0.00 77 1011.9
20170923193816 78 246 4.0 9.0 0.00 0.01 0.00 77 1011.9
20170923193302 78 245 4.0 9.0 0.00 0.01 0.00 77 1012.0
20170923193152 77 229 3.0 9.0 0.00 0.01 0.00 76 1011.1
20170923192806 78 260 6.0 9.0 0.00 0.01 0.00 75 1012.0
20170923192310 78 242 5.0 9.0 0.00 0.01 0.00 76 1012.0
20170923191757 79 241 5.0 9.0 0.00 0.01 0.00 75 1012.1
20170923191604 78 236 6.0 9.0 0.00 0.01 0.00 75 1011.2
20170923191307 79 217 6.0 9.0 0.00 0.01 0.00 75 1012.2
20170923190811 79 219 4.0 8.0 0.00 0.01 0.00 75 1012.2
20170923190324 80 257 4.0 9.0 0.00 0.01 0.00 73 1012.2
20170923185958 81 257 4.0 10.0 0.00 0.01 0.00 71 1011.4
20170923185806 82 254 4.0 10.0 0.00 0.11 0.00 71 1012.3
20170923185311 81 229 7.0 9.0 0.00 0.11 0.00 75 1012.3
20170923184757 80 232 4.0 7.0 0.00 0.11 0.00 74 1012.4
20170923184409 80 232 2.0 8.0 0.00 0.11 0.00 74 1011.5
20170923184309 80 221 2.0 8.0 0.00 0.11 0.00 74 1012.4
20170923183811 80 237 5.0 8.0 0.00 0.11 0.00 75 1012.4
20170923183316 80 241 4.0 7.0 0.00 0.11 0.00 73 1012.6
20170923182806 81 227 2.0 7.0 0.00 0.11 0.00 74 1012.7
20170923182758 80 227 2.0 7.0 0.00 0.11 0.00 74 1011.9
20170923182308 81 228 4.0 7.0 0.00 0.11 0.00 73 1012.7
20170923181810 81 233 4.0 6.0 0.00 0.11 0.00 73 1012.8
20170923181321 81 227 3.0 5.0 0.00 0.11 0.00 74 1012.8
20170923181202 80 229 2.0 5.0 0.00 0.11 0.00 74 1012.1
20170923180803 80 228 1.0 4.0 0.00 0.11 0.00 75 1012.9
20170923180306 79 227 1.0 4.0 0.00 0.11 0.00 77 1013.0
20170923175558 78 227 2.0 4.0 0.00 0.21 0.00 77 1012.4
20170923175258 78 229 3.0 4.0 0.00 0.21 0.00 78 1013.1
20170923174806 77 234 2.0 4.0 0.00 0.21 0.00 78 1013.2
20170923174311 77 238 2.0 7.0 0.00 0.21 0.00 78 1013.3
20170923174017 77 254 2.0 7.0 0.00 0.21 0.00 78 1012.5
20170923173802 78 246 5.0 7.0 0.00 0.21 0.00 78 1013.3
20170923173308 78 227 3.0 9.0 0.00 0.21 0.00 78 1013.2
20170923172812 78 233 6.0 9.0 0.00 0.21 0.00 79 1013.2
20170923172412 76 241 2.0 5.0 0.00 0.21 0.00 80 1012.4
20170923172323 77 236 3.0 5.0 0.00 0.21 0.00 80 1013.2
20170923171806 77 261 3.0 7.0 0.00 0.21 0.00 80 1013.1
20170923171309 76 240 5.0 8.0 0.00 0.21 0.00 82 1013.1
20170923170819 75 241 4.0 8.0 0.00 0.21 0.00 84 1013.1
20170923170805 74 248 3.0 8.0 0.00 0.21 0.00 84 1012.3
20170923170303 74 252 2.0 6.0 0.00 0.21 0.00 83 1013.1
20170923165807 74 248 4.0 8.0 0.00 0.32 0.00 82 1013.0
20170923165310 74 226 4.0 8.0 0.00 0.32 0.00 82 1012.9
20170923165221 74 252 4.0 8.0 0.00 0.32 0.00 82 1012.2
20170923164805 74 219 3.0 7.0 0.00 0.32 0.00 84 1013.0
20170923164309 73 237 3.0 5.0 0.00 0.32 0.00 85 1012.9
20170923163812 73 254 4.0 6.0 0.00 0.32 0.00 82 1013.0
20170923163615 74 263 3.0 8.0 0.00 0.32 0.00 80 1012.2
20170923163323 75 254 4.0 8.0 0.00 0.32 0.00 82 1012.9
20170923162808 74 226 6.0 9.0 0.00 0.32 0.00 83 1012.8
20170923162312 74 229 5.0 11.0 0.00 0.32 0.00 83 1012.9
20170923162016 73 244 2.0 11.0 0.00 0.32 0.00 84 1012.2
20170923161821 74 216 4.0 11.0 0.00 0.32 0.00 83 1013.1
20170923161303 73 248 7.0 11.0 0.00 0.32 0.00 84 1013.0
20170923160807 73 227 4.0 9.0 0.00 0.32 0.00 81 1012.9
20170923160422 74 251 5.0 9.0 0.00 0.32 0.00 80 1012.1
20170923160317 75 226 5.0 8.0 0.00 0.32 0.00 79 1012.7
20170923155820 76 254 5.0 10.0 0.00 0.32 0.00 77 1012.7
20170923155303 78 238 5.0 10.0 0.00 0.32 0.00 76 1012.7
20170923154813 78 259 5.0 14.0 0.00 0.32 0.00 76 1012.7
20170923154809 78 251 4.0 14.0 0.00 0.32 0.00 76 1011.9
20170923153811 78 188 5.0 11.0 0.00 0.32 0.00 79 1012.8
20170923153314 77 210 6.0 11.0 0.00 0.32 0.00 79 1012.8
20170923153114 77 231 5.0 14.0 0.00 0.32 0.00 78 1012.0
20170923152824 77 220 6.0 14.0 0.00 0.32 0.00 78 1012.8
20170923152309 77 226 7.0 14.0 0.00 0.32 0.00 79 1012.8
20170923151814 76 242 7.0 11.0 0.00 0.32 0.00 80 1012.9
20170923151521 76 243 6.0 14.0 0.00 0.32 0.00 79 1012.0
20170923151324 77 250 7.0 14.0 0.00 0.32 0.00 77 1012.9
20170923150809 77 234 7.0 14.0 0.00 0.32 0.00 77 1012.9
20170923150315 77 236 8.0 12.0 0.00 0.32 0.00 79 1012.9
20170923145933 76 231 6.0 12.0 0.00 0.32 0.00 79 1012.1
20170923145824 76 242 6.0 10.0 0.00 0.32 0.00 78 1012.9
20170923145307 76 227 7.0 14.0 0.00 0.32 0.00 79 1012.9
20170923144812 76 234 9.0 14.0 0.00 0.32 0.00 79 1012.9
20170923144328 76 228 6.0 13.0 0.00 0.32 0.00 77 1012.2
20170923144315 77 238 7.0 13.0 0.00 0.32 0.00 77 1013.0
20170923143826 77 242 7.0 12.0 0.00 0.32 0.00 79 1012.9
20170923143313 76 222 7.0 12.0 0.00 0.32 0.00 78 1013.0
20170923142816 77 235 7.0 12.0 0.00 0.32 0.00 77 1012.9
20170923142728 76 232 6.0 12.0 0.00 0.32 0.00 78 1012.2
20170923142327 77 232 8.0 11.0 0.00 0.32 0.00 77 1012.9
20170923141811 77 244 6.0 12.0 0.00 0.32 0.00 78 1012.9
20170923141313 77 225 6.0 14.0 0.00 0.32 0.00 78 1012.8
20170923141157 76 226 7.0 14.0 0.00 0.32 0.00 78 1012.1
20170923140822 77 192 5.0 15.0 0.00 0.32 0.00 79 1012.8